When you browse on this site, cookies collect data to enhance your experience and personalize the content and advertising you see.
Visit our Privacy Policy to learn more. By continuing to use the site, you agree to this use of cookies and data.
  • In Lithuania
  • List of Countries
  • For 7 days
  • Water Temperature
  • Satellite Maps
  • Weather Map
  • Weather Widgets
  • user-avatar
    Login

    Hourly Weather Vinh

    Today, 17 November, Saturday

    Time Temperature Precipitation Wind Pressure Humidity
    00:00 +23°C° 0 mm 0 mps 748 mmHg 94%
    01:00 +23°C° 0 mm 0 mps 748 mmHg 95%
    02:00 +23°C° 0 mm 0 mps 748 mmHg 95%
    03:00 +23°C° 0 mm 0 mps 748 mmHg 95%
    04:00 +23°C° 0 mm 0 mps 748 mmHg 95%
    05:00 +23°C° 0 mm 0 mps 748 mmHg 94%
    06:00 +23°C° 0 mm 0 mps 748 mmHg 93%
    07:00 +24°C° 0 mm 0 mps 748 mmHg 91%
    08:00 +26°C° 0 mm 0 mps 748 mmHg 83%
    09:00 +30°C° 0 mm 1 mps 748 mmHg 75%
    10:00 +32°C° 0 mm 1 mps 748 mmHg 66%
    11:00 +32°C° 0.1 mm 1 mps 748 mmHg 65%
    12:00 +34°C° 0.1 mm 2 mps 747 mmHg 63%
    13:00 +34°C° 0.1 mm 2 mps 747 mmHg 62%
    14:00 +32°C° 0.4 mm 2 mps 747 mmHg 66%
    15:00 +32°C° 0.4 mm 2 mps 746 mmHg 71%
    16:00 +31°C° 0.4 mm 3 mps 746 mmHg 75%
    17:00 +30°C° 0.5 mm 2 mps 747 mmHg 81%
    18:00 +28°C° 0.5 mm 2 mps 747 mmHg 86%
    19:00 +27°C° 0.5 mm 2 mps 747 mmHg 92%
    20:00 +27°C° 0 mm 1 mps 748 mmHg 93%
    21:00 +26°C° 0 mm 1 mps 748 mmHg 94%
    22:00 +26°C° 0 mm 1 mps 748 mmHg 95%
    23:00 +26°C° 0 mm 1 mps 748 mmHg 94%

    Tomorrow, 18 November, Sunday

    Time Temperature Precipitation Wind Pressure Humidity
    00:00 +25°C° 0 mm 1 mps 748 mmHg 94%
    01:00 +23°C° 0 mm 0 mps 748 mmHg 94%
    02:00 +23°C° 0 mm 0 mps 747 mmHg 94%
    03:00 +23°C° 0 mm 0 mps 747 mmHg 94%
    04:00 +22°C° 0 mm 0 mps 747 mmHg 94%
    05:00 +23°C° 0 mm 0 mps 747 mmHg 92%
    06:00 +25°C° 0 mm 1 mps 748 mmHg 91%
    07:00 +25°C° 0 mm 1 mps 748 mmHg 90%
    08:00 +27°C° 0 mm 1 mps 748 mmHg 82%
    09:00 +29°C° 0 mm 1 mps 749 mmHg 74%
    10:00 +31°C° 0 mm 1 mps 749 mmHg 65%
    11:00 +32°C° 0 mm 1 mps 749 mmHg 61%
    12:00 +34°C° 0 mm 2 mps 748 mmHg 57%
    13:00 +35°C° 0 mm 2 mps 748 mmHg 53%
    14:00 +34°C° 0.1 mm 2 mps 747 mmHg 59%
    15:00 +32°C° 0.1 mm 2 mps 747 mmHg 65%
    16:00 +31°C° 0.1 mm 2 mps 747 mmHg 71%
    17:00 +30°C° 0 mm 2 mps 747 mmHg 78%
    18:00 +28°C° 0 mm 2 mps 747 mmHg 85%
    19:00 +27°C° 0 mm 1 mps 748 mmHg 92%
    20:00 +27°C° 0 mm 1 mps 748 mmHg 93%
    21:00 +27°C° 0 mm 1 mps 748 mmHg 94%
    22:00 +27°C° 0 mm 1 mps 749 mmHg 95%
    23:00 +24°C° 0 mm 0 mps 748 mmHg 95%

    Day after tomorrow, 19 November, Monday

    Time Temperature Precipitation Wind Pressure Humidity
    00:00 +24°C° 0 mm 0 mps 748 mmHg 95%
    01:00 +24°C° 0 mm 0 mps 748 mmHg 96%
    02:00 +24°C° 0.1 mm 0 mps 748 mmHg 96%
    03:00 +24°C° 0.1 mm 0 mps 748 mmHg 96%
    04:00 +24°C° 0.1 mm 0 mps 748 mmHg 96%
    05:00 +24°C° 0.1 mm 0 mps 748 mmHg 95%
    06:00 +24°C° 0.1 mm 0 mps 748 mmHg 94%
    07:00 +24°C° 0.1 mm 0 mps 749 mmHg 92%
    08:00 +28°C° 0.1 mm 1 mps 749 mmHg 85%
    09:00 +29°C° 0.1 mm 1 mps 750 mmHg 78%
    10:00 +31°C° 0.1 mm 1 mps 750 mmHg 70%
    11:00 +31°C° 0.4 mm 2 mps 749 mmHg 70%
    12:00 +32°C° 0.4 mm 2 mps 749 mmHg 69%
    13:00 +32°C° 0.4 mm 2 mps 748 mmHg 68%
    14:00 +31°C° 0.8 mm 2 mps 747 mmHg 72%
    15:00 +31°C° 0.8 mm 2 mps 747 mmHg 76%
    16:00 +30°C° 0.8 mm 2 mps 747 mmHg 79%
    17:00 +29°C° 0.4 mm 2 mps 747 mmHg 84%
    18:00 +28°C° 0.4 mm 2 mps 748 mmHg 88%
    19:00 +27°C° 0.4 mm 1 mps 748 mmHg 93%
    20:00 +26°C° 0.1 mm 1 mps 749 mmHg 94%
    21:00 +26°C° 0.1 mm 1 mps 749 mmHg 94%
    22:00 +26°C° 0.1 mm 1 mps 750 mmHg 95%
    23:00 +26°C° 0.1 mm 1 mps 749 mmHg 95%

    20 November, Tuesday

    Time Temperature Precipitation Wind Pressure Humidity
    00:00 +26°C° 0.1 mm 1 mps 749 mmHg 95%
    01:00 +23°C° 0.1 mm 0 mps 749 mmHg 96%
    02:00 +25°C° 0 mm 1 mps 748 mmHg 95%
    03:00 +25°C° 0 mm 1 mps 748 mmHg 95%
    04:00 +25°C° 0 mm 1 mps 748 mmHg 95%
    05:00 +25°C° 0 mm 1 mps 748 mmHg 94%
    06:00 +25°C° 0 mm 1 mps 749 mmHg 93%
    07:00 +26°C° 0 mm 1 mps 749 mmHg 91%
    08:00 +27°C° 0 mm 1 mps 750 mmHg 83%
    09:00 +29°C° 0 mm 1 mps 750 mmHg 75%
    10:00 +31°C° 0 mm 1 mps 750 mmHg 67%
    11:00 +32°C° 0.2 mm 1 mps 749 mmHg 66%
    12:00 +32°C° 0.2 mm 1 mps 748 mmHg 65%
    13:00 +32°C° 0.2 mm 2 mps 747 mmHg 65%
    14:00 +32°C° 0.5 mm 2 mps 747 mmHg 68%
    15:00 +31°C° 0.5 mm 2 mps 746 mmHg 72%
    16:00 +31°C° 0.5 mm 2 mps 746 mmHg 75%
    17:00 +29°C° 0.2 mm 2 mps 746 mmHg 81%
    18:00 +28°C° 0.2 mm 2 mps 747 mmHg 86%
    19:00 +27°C° 0.2 mm 1 mps 747 mmHg 91%
    20:00 +27°C° 0 mm 1 mps 748 mmHg 92%
    21:00 +26°C° 0 mm 1 mps 748 mmHg 93%
    22:00 +26°C° 0 mm 1 mps 749 mmHg 94%
    23:00 +26°C° 0 mm 1 mps 748 mmHg 94%

    21 November, Wednesday

    Time Temperature Precipitation Wind Pressure Humidity
    00:00 +26°C° 0 mm 1 mps 748 mmHg 95%
    01:00 +24°C° 0 mm 0 mps 748 mmHg 95%
    02:00 +23°C° 0 mm 0 mps 748 mmHg 95%
    03:00 +23°C° 0 mm 0 mps 748 mmHg 95%
    04:00 +23°C° 0 mm 0 mps 747 mmHg 95%
    05:00 +23°C° 0 mm 0 mps 748 mmHg 94%
    06:00 +23°C° 0 mm 0 mps 748 mmHg 93%
    07:00 +24°C° 0 mm 0 mps 749 mmHg 92%
    08:00 +26°C° 0 mm 0 mps 749 mmHg 82%
    09:00 +29°C° 0 mm 1 mps 749 mmHg 73%
    10:00 +31°C° 0 mm 1 mps 750 mmHg 64%
    11:00 +32°C° 0 mm 1 mps 749 mmHg 62%
    12:00 +32°C° 0 mm 1 mps 748 mmHg 61%
    13:00 +34°C° 0 mm 2 mps 747 mmHg 59%
    14:00 +32°C° 0.3 mm 2 mps 747 mmHg 64%
    15:00 +31°C° 0.3 mm 2 mps 746 mmHg 69%
    16:00 +30°C° 0.3 mm 2 mps 746 mmHg 74%
    17:00 +29°C° 0.2 mm 2 mps 747 mmHg 80%
    18:00 +28°C° 0.2 mm 2 mps 747 mmHg 86%
    19:00 +26°C° 0.2 mm 1 mps 748 mmHg 93%
    20:00 +26°C° 0.1 mm 1 mps 748 mmHg 93%
    21:00 +26°C° 0.1 mm 1 mps 749 mmHg 94%
    22:00 +26°C° 0.1 mm 1 mps 749 mmHg 94%
    23:00 +26°C° 0.2 mm 1 mps 749 mmHg 94%

    22 November, Thursday

    Time Temperature Precipitation Wind Pressure Humidity
    00:00 +25°C° 0.2 mm 1 mps 749 mmHg 94%
    01:00 +25°C° 0.2 mm 1 mps 748 mmHg 94%
    02:00 +25°C° 0.3 mm 1 mps 748 mmHg 94%
    03:00 +25°C° 0.3 mm 2 mps 748 mmHg 94%
    04:00 +25°C° 0.3 mm 2 mps 748 mmHg 93%
    05:00 +24°C° 0.6 mm 2 mps 749 mmHg 93%
    06:00 +24°C° 0.6 mm 3 mps 749 mmHg 94%
    07:00 +24°C° 0.6 mm 3 mps 750 mmHg 94%
    08:00 +24°C° 0.6 mm 3 mps 750 mmHg 93%
    09:00 +24°C° 0.6 mm 3 mps 750 mmHg 91%
    10:00 +24°C° 0.6 mm 3 mps 750 mmHg 90%
    11:00 +24°C° 0.3 mm 3 mps 750 mmHg 88%
    12:00 +24°C° 0.3 mm 3 mps 749 mmHg 85%
    13:00 +25°C° 0.3 mm 2 mps 748 mmHg 83%
    14:00 +25°C° 0.1 mm 2 mps 748 mmHg 82%
    15:00 +25°C° 0.1 mm 2 mps 748 mmHg 82%
    16:00 +25°C° 0.1 mm 2 mps 747 mmHg 81%
    17:00 +25°C° 0.1 mm 2 mps 748 mmHg 84%
    18:00 +24°C° 0.1 mm 2 mps 749 mmHg 86%
    19:00 +23°C° 0.1 mm 2 mps 749 mmHg 89%
    20:00 +23°C° 0.1 mm 2 mps 749 mmHg 89%
    21:00 +23°C° 0.1 mm 2 mps 750 mmHg 90%
    22:00 +23°C° 0.1 mm 2 mps 750 mmHg 90%
    23:00 +23°C° 0.1 mm 2 mps 749 mmHg 91%
    Show more